Content
SEND FEEDBACK

Daily
Averages
Monthly
Summary
United States of America

ITHACA, NEW YORK


Home > North America > United States > New York
Elevation: 1094 feet     Latitude: 42 29N     Longitude: 076 28W

WEATHER
 
SELECT A DAY
Number of Records: 161,384;   Date Range: 1/1/95 - 9/29/14
 
SHARE

PRINT THIS DATA

[ ← Previous Day ]
WEATHER ALMANAC - FEBRUARY 13, 2013
[ Next Day → ]
[ °C ]   °F
Weather ElementAverageHighLow
Temperature30.6 °F36.9 °F (2:56 pm)25.2 °F (11:56 pm)
Dewpoint20.5 °F22.1 °F (7:56 pm)19 °F (11:56 pm)
Humidity66.7 %78 % (8:56 pm)51 % (2:56 pm)
Barometer29.83 in29.94 in (1:56 am)29.72 in (4:56 pm)
Wind Speed2.1 mph9.2 mph (12:56 am)
Weather ElementAverage
Visibility10 mi
Wind DirectionESE (100.7 °)

Weather ElementTotal
Precipitation---
Heating Degree Days34 (Base 65)
Averaged from 27 records on February 13, 2013
WEATHER CONDITIONS BREAKOUT
WIND DIRECTION BREAKOUT
WEATHER BY HOUR - FEBRUARY 13, 2013
[ °C ]   °F
Local TimeTemperatureDewpointHumidityBarometerVisibilityWind DirectionWind SpeedGust SpeedPrecipitationEventsConditions
12:56 AM29.1 °F20.1 °F69 %29.93 in10.0 miWNW (300°)9.2 mphOvercast
1:56 AM29.1 °F21.0 °F72 %29.94 in10.0 miWest (260°)4.6 mphOvercast
2:12 AM28.4 °F21.2 °F74 %29.90 in10.0 miWSW (250°)4.6 mphOvercast
2:34 AM28.4 °F21.2 °F74 %29.89 in10.0 miWSW (250°)4.6 mphOvercast
2:56 AM29.1 °F20.1 °F69 %29.93 in10.0 miWest (270°)5.8 mphOvercast
3:56 AM29.1 °F20.1 °F69 %29.91 in10.0 miCalmOvercast
4:56 AM29.1 °F20.1 °F69 %29.90 in10.0 miCalmOvercast
5:56 AM28.0 °F21.0 °F75 %29.90 in10.0 miCalmOvercast
6:19 AM28.4 °F19.4 °F69 %29.85 in10.0 miCalmOvercast
6:56 AM28.0 °F21.0 °F75 %29.89 in10.0 miCalmOvercast
7:56 AM29.1 °F21.0 °F72 %29.89 in10.0 miCalmOvercast
8:56 AM31.1 °F20.1 °F64 %29.87 in10.0 miCalmOvercast
9:56 AM32.0 °F21.0 °F64 %29.86 in10.0 miCalmOvercast
10:56 AM32.0 °F20.1 °F62 %29.85 in10.0 miNW (320°)6.9 mphOvercast
11:56 AM32.9 °F20.1 °F59 %29.83 in10.0 miCalmMostly Cloudy
12:56 PM34.9 °F20.1 °F55 %29.81 in10.0 miCalmScattered Clouds
1:56 PM36.0 °F20.1 °F53 %29.77 in10.0 miCalmPartly Cloudy
2:56 PM36.9 °F20.1 °F51 %29.76 in10.0 miCalmPartly Cloudy
3:56 PM36.9 °F20.1 °F51 %29.73 in10.0 miCalmClear
4:56 PM36.0 °F20.1 °F53 %29.72 in10.0 miENE (70°)3.5 mphClear
5:56 PM32.9 °F20.1 °F59 %29.72 in10.0 miCalmClear
6:56 PM30.0 °F21.0 °F69 %29.74 in10.0 miCalmOvercast
7:56 PM29.1 °F22.1 °F75 %29.75 in10.0 miCalmClear
8:56 PM28.0 °F22.1 °F78 %29.76 in10.0 miNorth (350°)3.5 mphClear
9:56 PM29.1 °F20.1 °F69 %29.76 in10.0 miNorth (10°)3.5 mphClear
10:56 PM27.1 °F20.1 °F75 %29.77 in10.0 miNW (320°)4.6 mphClear
11:56 PM25.2 °F19.0 °F78 %29.79 in10.0 miNW (320°)5.8 mphClear
Hourly data recorded from KITH, located miles away from Ithaca, New York







STORIES FROM OUR PARTNERS